Overview Statistics Trail Chart Weather Telemetry Raw packets
 

This is the latest recevied weather packets stored in our database for station/object EA1PYE-10. If no packets are shown the sender has not sent any weather packets the latest 10 day(s).

<< 16 17 18 19 >>
Time Temp. Humidity Pressure Rain* Wind** Luminosity Snow
1787796234 18.89° C 46% 1009.7 hPa - - - -
1787794434 18.89° C 46% 1009.9 hPa - - - -
1787792634 18.89° C 46% 1009.7 hPa - - - -
1787790834 18.89° C 46% 1009.7 hPa - - - -
1787789034 18.89° C 46% 1009.6 hPa - - - -
1787787234 18.89° C 46% 1009.7 hPa - - - -
1787785434 19.44° C 47% 1009.9 hPa - - - -
1787783634 18.89° C 45% 1009.7 hPa - - - -
1787781834 18.89° C 46% 1009.9 hPa - - - -
1787780033 19.44° C 46% 1010.3 hPa - - - -
1787778233 19.44° C 47% 1010.5 hPa - - - -
1787778204 19.44° C 47% 1010.4 hPa - - - -
1787776404 19.44° C 46% 1010.6 hPa - - - -
1787774604 19.44° C 46% 1009.5 hPa - - - -
1787772804 19.44° C 46% 1008.6 hPa - - - -
1787771004 22.22° C 39% 1008.1 hPa - - - -
1787750144 19.44° C 56% 1008.1 hPa - - - -
1787748344 19.44° C 55% 1007.2 hPa - - - -
1787746544 19.44° C 54% 1006.9 hPa - - - -
1787744744 19.44° C 53% 1007 hPa - - - -
1787742944 19.44° C 55% 1007.4 hPa - - - -
1787741144 19.44° C 57% 1007.8 hPa - - - -

* Rain since midnight (hover to see other rain measurements)
** Current wind speed in m/s (hover to see current wind gust speed)